When you browse on this site, cookies collect data to enhance your experience and personalize the content and advertising you see.
Visit our Privacy Policy to learn more. By continuing to use the site, you agree to this use of cookies and data.
  • In Hungary
  • List of Countries
  • For 7 days
  • Water Temperature
  • Satellite Maps
  • Weather Map
  • News
  • Weather Widgets
  • user-avatar
    Login

    Hourly Weather Matagalpa

    Today, 16 January, Wednesday

    Time Temperature Precipitation Wind Pressure Humidity
    00:00 +17°C° 0 mm 3 mps 683 mmHg 91%
    01:00 +17°C° 0 mm 3 mps 682 mmHg 92%
    02:00 +17°C° 0 mm 3 mps 682 mmHg 92%
    03:00 +16°C° 0 mm 3 mps 682 mmHg 93%
    04:00 +16°C° 0 mm 3 mps 682 mmHg 92%
    05:00 +16°C° 0 mm 3 mps 682 mmHg 92%
    06:00 +14°C° 0 mm 3 mps 682 mmHg 91%
    07:00 +18°C° 0 mm 3 mps 683 mmHg 79%
    08:00 +20°C° 0 mm 4 mps 684 mmHg 68%
    09:00 +22°C° 0 mm 5 mps 685 mmHg 56%
    10:00 +25°C° 0 mm 5 mps 685 mmHg 51%
    11:00 +26°C° 0 mm 6 mps 685 mmHg 47%
    12:00 +28°C° 0 mm 6 mps 684 mmHg 43%
    13:00 +28°C° 0 mm 6 mps 684 mmHg 43%
    14:00 +28°C° 0 mm 6 mps 683 mmHg 43%
    15:00 +28°C° 0 mm 6 mps 682 mmHg 44%
    16:00 +26°C° 0 mm 5 mps 682 mmHg 51%
    17:00 +23°C° 0 mm 5 mps 682 mmHg 58%
    18:00 +22°C° 0 mm 4 mps 682 mmHg 65%
    19:00 +21°C° 0 mm 4 mps 682 mmHg 71%
    20:00 +20°C° 0 mm 4 mps 683 mmHg 77%
    21:00 +19°C° 0 mm 4 mps 683 mmHg 83%
    22:00 +19°C° 0 mm 4 mps 683 mmHg 86%
    23:00 +18°C° 0 mm 3 mps 683 mmHg 89%

    Tomorrow, 17 January, Thursday

    Time Temperature Precipitation Wind Pressure Humidity
    00:00 +18°C° 0 mm 3 mps 683 mmHg 92%
    01:00 +18°C° 0 mm 3 mps 683 mmHg 92%
    02:00 +17°C° 0 mm 3 mps 682 mmHg 93%
    03:00 +17°C° 0 mm 3 mps 682 mmHg 93%
    04:00 +17°C° 0 mm 3 mps 682 mmHg 93%
    05:00 +17°C° 0 mm 3 mps 682 mmHg 92%
    06:00 +17°C° 0 mm 3 mps 682 mmHg 92%
    07:00 +19°C° 0 mm 3 mps 683 mmHg 83%
    08:00 +20°C° 0 mm 4 mps 684 mmHg 74%
    09:00 +22°C° 0 mm 5 mps 685 mmHg 64%
    10:00 +23°C° 0 mm 5 mps 684 mmHg 58%
    11:00 +26°C° 0 mm 5 mps 684 mmHg 52%
    12:00 +27°C° 0 mm 6 mps 684 mmHg 46%
    13:00 +28°C° 0 mm 6 mps 683 mmHg 46%
    14:00 +28°C° 0 mm 6 mps 682 mmHg 47%
    15:00 +28°C° 0 mm 6 mps 682 mmHg 47%
    16:00 +26°C° 0 mm 5 mps 682 mmHg 58%
    17:00 +23°C° 0 mm 4 mps 682 mmHg 68%
    18:00 +21°C° 0 mm 3 mps 681 mmHg 78%
    19:00 +20°C° 0 mm 3 mps 682 mmHg 83%
    20:00 +19°C° 0 mm 3 mps 682 mmHg 87%
    21:00 +19°C° 0 mm 3 mps 683 mmHg 91%
    22:00 +18°C° 0 mm 3 mps 682 mmHg 91%
    23:00 +18°C° 0 mm 3 mps 682 mmHg 92%

    Day after tomorrow, 18 January, Friday

    Time Temperature Precipitation Wind Pressure Humidity
    00:00 +18°C° 0 mm 3 mps 682 mmHg 93%
    01:00 +18°C° 0 mm 3 mps 682 mmHg 93%
    02:00 +18°C° 0 mm 3 mps 681 mmHg 92%
    03:00 +18°C° 0 mm 3 mps 681 mmHg 92%
    04:00 +18°C° 0 mm 3 mps 681 mmHg 92%
    05:00 +18°C° 0 mm 3 mps 682 mmHg 91%
    06:00 +17°C° 0 mm 3 mps 682 mmHg 91%
    07:00 +19°C° 0 mm 4 mps 683 mmHg 83%
    08:00 +21°C° 0 mm 4 mps 683 mmHg 75%
    09:00 +22°C° 0 mm 5 mps 684 mmHg 67%
    10:00 +25°C° 0 mm 5 mps 684 mmHg 61%
    11:00 +26°C° 0 mm 6 mps 683 mmHg 56%
    12:00 +28°C° 0 mm 6 mps 683 mmHg 50%
    13:00 +28°C° 0 mm 6 mps 682 mmHg 50%
    14:00 +28°C° 0 mm 6 mps 682 mmHg 50%
    15:00 +28°C° 0 mm 6 mps 681 mmHg 49%
    16:00 +26°C° 0 mm 5 mps 681 mmHg 59%
    17:00 +23°C° 0 mm 4 mps 681 mmHg 68%
    18:00 +21°C° 0 mm 3 mps 681 mmHg 77%
    19:00 +20°C° 0 mm 3 mps 681 mmHg 83%
    20:00 +19°C° 0 mm 3 mps 682 mmHg 88%
    21:00 +18°C° 0 mm 3 mps 682 mmHg 94%
    22:00 +18°C° 0 mm 3 mps 682 mmHg 94%
    23:00 +18°C° 0 mm 3 mps 682 mmHg 94%

    19 January, Saturday

    Time Temperature Precipitation Wind Pressure Humidity
    00:00 +18°C° 0 mm 3 mps 681 mmHg 94%
    01:00 +18°C° 0 mm 3 mps 681 mmHg 95%
    02:00 +18°C° 0 mm 3 mps 681 mmHg 95%
    03:00 +17°C° 0 mm 2 mps 680 mmHg 95%
    04:00 +17°C° 0 mm 2 mps 680 mmHg 95%
    05:00 +17°C° 0 mm 2 mps 681 mmHg 94%
    06:00 +17°C° 0 mm 2 mps 681 mmHg 94%
    07:00 +19°C° 0 mm 3 mps 682 mmHg 85%
    08:00 +21°C° 0 mm 3 mps 683 mmHg 76%
    09:00 +22°C° 0 mm 4 mps 683 mmHg 67%
    10:00 +25°C° 0 mm 4 mps 683 mmHg 59%
    11:00 +27°C° 0 mm 5 mps 683 mmHg 52%
    12:00 +28°C° 0 mm 5 mps 682 mmHg 45%
    13:00 +28°C° 0 mm 5 mps 682 mmHg 46%
    14:00 +28°C° 0 mm 5 mps 681 mmHg 47%
    15:00 +28°C° 0 mm 5 mps 680 mmHg 48%
    16:00 +26°C° 0 mm 4 mps 680 mmHg 59%
    17:00 +24°C° 0 mm 3 mps 680 mmHg 70%
    18:00 +21°C° 0 mm 2 mps 680 mmHg 81%
    19:00 +20°C° 0 mm 2 mps 680 mmHg 86%
    20:00 +19°C° 0 mm 2 mps 681 mmHg 90%
    21:00 +18°C° 0 mm 2 mps 681 mmHg 95%
    22:00 +18°C° 0 mm 2 mps 681 mmHg 96%
    23:00 +19°C° 0 mm 1 mps 681 mmHg 97%

    20 January, Sunday

    Time Temperature Precipitation Wind Pressure Humidity
    00:00 +19°C° 0 mm 1 mps 681 mmHg 97%
    01:00 +18°C° 0 mm 1 mps 681 mmHg 98%
    02:00 +18°C° 0 mm 1 mps 681 mmHg 98%
    03:00 +16°C° 0 mm 1 mps 680 mmHg 98%
    04:00 +16°C° 0 mm 1 mps 681 mmHg 98%
    05:00 +16°C° 0 mm 2 mps 681 mmHg 97%
    06:00 +16°C° 0 mm 2 mps 681 mmHg 97%
    07:00 +18°C° 0 mm 2 mps 682 mmHg 82%
    08:00 +21°C° 0 mm 2 mps 683 mmHg 68%
    09:00 +24°C° 0 mm 3 mps 684 mmHg 54%
    10:00 +26°C° 0 mm 4 mps 684 mmHg 46%
    11:00 +28°C° 0 mm 4 mps 684 mmHg 39%
    12:00 +30°C° 0 mm 5 mps 684 mmHg 31%
    13:00 +30°C° 0 mm 5 mps 683 mmHg 34%
    14:00 +30°C° 0 mm 6 mps 682 mmHg 36%
    15:00 +30°C° 0 mm 6 mps 681 mmHg 39%
    16:00 +28°C° 0 mm 5 mps 681 mmHg 46%
    17:00 +26°C° 0 mm 5 mps 681 mmHg 54%
    18:00 +23°C° 0 mm 4 mps 682 mmHg 61%
    19:00 +22°C° 0 mm 4 mps 682 mmHg 67%
    20:00 +21°C° 0 mm 4 mps 682 mmHg 73%
    21:00 +20°C° 0 mm 4 mps 683 mmHg 78%
    22:00 +20°C° 0 mm 4 mps 682 mmHg 81%
    23:00 +19°C° 0 mm 4 mps 682 mmHg 83%

    21 January, Monday

    Time Temperature Precipitation Wind Pressure Humidity
    00:00 +18°C° 0 mm 4 mps 682 mmHg 85%
    01:00 +18°C° 0 mm 4 mps 682 mmHg 85%
    02:00 +17°C° 0 mm 4 mps 681 mmHg 84%
    03:00 +17°C° 0 mm 4 mps 681 mmHg 83%
    04:00 +17°C° 0 mm 4 mps 681 mmHg 83%
    05:00 +15°C° 0 mm 4 mps 681 mmHg 83%
    06:00 +15°C° 0 mm 4 mps 682 mmHg 83%
    07:00 +17°C° 0 mm 5 mps 683 mmHg 74%
    08:00 +20°C° 0 mm 6 mps 683 mmHg 64%
    09:00 +22°C° 0 mm 7 mps 684 mmHg 55%
    10:00 +23°C° 0 mm 7 mps 684 mmHg 53%
    11:00 +24°C° 0 mm 7 mps 684 mmHg 50%
    12:00 +27°C° 0 mm 7 mps 683 mmHg 48%
    13:00 +26°C° 0 mm 7 mps 683 mmHg 49%
    14:00 +26°C° 0 mm 7 mps 682 mmHg 51%
    15:00 +24°C° 0 mm 7 mps 681 mmHg 53%
    16:00 +23°C° 0 mm 6 mps 681 mmHg 58%
    17:00 +21°C° 0 mm 6 mps 681 mmHg 64%
    18:00 +20°C° 0 mm 5 mps 681 mmHg 70%
    19:00 +19°C° 0 mm 5 mps 682 mmHg 72%
    20:00 +17°C° 0 mm 5 mps 682 mmHg 75%
    21:00 +17°C° 0 mm 5 mps 682 mmHg 77%
    22:00 +17°C° 0 mm 4 mps 682 mmHg 78%
    23:00 +17°C° 0 mm 4 mps 682 mmHg 79%
    Show more